Location: Unspecified
(0.0000°N, 0.0000°E)
Time: 00:34:55
(UTC+00:00)

SR - Visible Passes

Search period start: 16 September 2019 00:00
Search period end: 26 September 2019 00:00
Orbit: 576 x 879 km, 66.7° (Epoch: 15 September)

Date Brightness Start Highest point End Pass type
(mag) Time Alt. Az. Time Alt. Az. Time Alt. Az.
16 Sep ? 04:19:06 10° SSE 04:22:35 25° ESE 04:26:08 10° NE visible
17 Sep ? 05:10:52 10° SW 05:14:44 35° WNW 05:18:46 10° N visible
18 Sep ? 04:23:15 31° S 04:25:11 71° ESE 04:29:34 10° NNE visible
19 Sep ? 03:36:41 21° E 03:36:41 21° E 03:39:06 10° ENE visible
19 Sep ? 05:16:12 12° W 05:17:27 13° WNW 05:19:37 10° NW visible
20 Sep ? 04:29:25 28° NNW 04:29:25 28° NNW 04:31:58 10° N visible
21 Sep ? 03:42:27 11° NNE 03:42:27 11° NNE 03:42:38 10° NNE visible
